Time,TemperatureF,DewpointF,PressureIn,WindDirection,WindDirectionDegrees,WindSpeedMPH,WindSpeedGustMPH,Humidity,HourlyPrecipIn,Conditions,Clouds,dailyrainin,SoftwareType,DateUTC
2013-02-04 00:01:00,45.5,41.7,30.14,North,9,1.0,5.6,86,0.00,n/a,n/a,-99.99,Henriksen +1-Wire,2013-02-04 08:01:00,
2013-02-04 00:11:00,45.6,41.7,30.14,NNE,19,1.9,3.7,86,0.00,n/a,n/a,-99.99,Henriksen +1-Wire,2013-02-04 08:11:00,
2013-02-04 00:21:00,45.6,41.6,30.14,North,11,1.2,2.8,85,0.00,n/a,n/a,-99.99,Henriksen +1-Wire,2013-02-04 08:21:00,
2013-02-04 00:31:00,45.5,41.4,30.13,North,3,1.1,2.8,85,0.00,n/a,n/a,-99.99,Henriksen +1-Wire,2013-02-04 08:31:00,
2013-02-04 00:41:00,45.6,41.5,30.13,NNW,343,1.1,3.7,85,0.00,n/a,n/a,-99.99,Henriksen +1-Wire,2013-02-04 08:41:00,
2013-02-04 00:51:00,45.9,42.0,30.13,NNW,328,1.1,6.5,85,0.00,n/a,n/a,-99.99,Henriksen +1-Wire,2013-02-04 08:51:00,
2013-02-04 01:01:00,46.2,42.2,30.13,NNE,28,1.2,2.8,85,0.00,n/a,n/a,-99.99,Henriksen +1-Wire,2013-02-04 09:01:00,
2013-02-04 01:11:00,46.3,42.2,30.13,North,359,1.7,3.7,85,0.00,n/a,n/a,-99.99,Henriksen +1-Wire,2013-02-04 09:11:00,
2013-02-04 01:21:00,46.3,42.3,30.13,North,355,2.3,3.7,85,0.00,n/a,n/a,-99.99,Henriksen +1-Wire,2013-02-04 09:21:00,
2013-02-04 01:31:00,46.6,42.7,30.12,North,353,2.6,4.6,86,0.00,n/a,n/a,-99.99,Henriksen +1-Wire,2013-02-04 09:31:00,
2013-02-04 01:41:00,47.0,43.2,30.12,NW,323,2.3,7.4,86,0.00,n/a,n/a,-99.99,Henriksen +1-Wire,2013-02-04 09:41:00,
2013-02-04 01:51:00,47.3,43.6,30.13,NNW,348,2.7,5.5,86,0.00,n/a,n/a,-99.99,Henriksen +1-Wire,2013-02-04 09:51:00,
2013-02-04 02:01:00,47.4,43.8,30.12,North,350,3.3,6.5,87,0.00,n/a,n/a,-99.99,Henriksen +1-Wire,2013-02-04 10:01:00,
2013-02-04 02:11:00,47.6,44.1,30.12,NNW,331,4.5,9.2,87,0.00,n/a,n/a,-99.99,Henriksen +1-Wire,2013-02-04 10:11:00,
2013-02-04 02:21:00,48.0,44.6,30.12,NNW,336,3.0,7.5,87,0.00,n/a,n/a,-99.99,Henriksen +1-Wire,2013-02-04 10:21:00,
2013-02-04 02:31:00,48.2,44.8,30.12,NW,325,3.1,6.4,87,0.00,n/a,n/a,-99.99,Henriksen +1-Wire,2013-02-04 10:31:00,
2013-02-04 02:41:00,48.3,44.9,30.12,NNW,340,3.3,7.2,87,0.00,n/a,n/a,-99.99,Henriksen +1-Wire,2013-02-04 10:41:00,
2013-02-04 02:51:00,48.5,45.0,30.13,NW,317,4.3,7.4,87,0.00,n/a,n/a,-99.99,Henriksen +1-Wire,2013-02-04 10:51:00,
2013-02-04 03:01:00,48.7,45.3,30.12,NNW,334,5.0,9.1,88,0.00,n/a,n/a,-99.99,Henriksen +1-Wire,2013-02-04 11:01:00,
2013-02-04 03:11:00,49.0,45.8,30.12,NNW,336,4.6,8.4,88,0.00,n/a,n/a,-99.99,Henriksen +1-Wire,2013-02-04 11:11:00,
2013-02-04 03:21:00,49.1,46.0,30.12,NNW,335,4.0,8.3,88,0.00,n/a,n/a,-99.99,Henriksen +1-Wire,2013-02-04 11:21:00,
2013-02-04 03:31:00,49.1,46.0,30.12,NW,319,4.9,10.0,88,0.00,n/a,n/a,-99.99,Henriksen +1-Wire,2013-02-04 11:31:00,
2013-02-04 03:41:00,49.1,46.0,30.12,NNW,335,2.1,7.4,88,0.00,n/a,n/a,-99.99,Henriksen +1-Wire,2013-02-04 11:41:00,
2013-02-04 03:51:00,49.0,45.7,30.11,NNW,336,4.0,6.4,88,0.00,n/a,n/a,-99.99,Henriksen +1-Wire,2013-02-04 11:51:00,
2013-02-04 04:01:00,48.7,45.5,30.10,North,358,4.3,6.5,88,0.00,n/a,n/a,-99.99,Henriksen +1-Wire,2013-02-04 12:01:00,
2013-02-04 04:11:00,48.5,45.3,30.10,NNE,17,5.2,7.4,88,0.00,n/a,n/a,-99.99,Henriksen +1-Wire,2013-02-04 12:11:00,
2013-02-04 04:21:00,48.0,44.8,30.09,NNE,24,3.8,7.2,88,0.00,n/a,n/a,-99.99,Henriksen +1-Wire,2013-02-04 12:21:00,
2013-02-04 04:31:00,47.7,44.3,30.10,NE,50,1.2,4.6,88,0.00,n/a,n/a,-99.99,Henriksen +1-Wire,2013-02-04 12:31:00,
2013-02-04 04:41:00,47.1,43.5,30.10,NE,39,2.0,2.8,86,0.00,n/a,n/a,-99.99,Henriksen +1-Wire,2013-02-04 12:41:00,
2013-02-04 04:51:00,46.7,42.9,30.10,NNE,29,0.1,2.9,86,0.00,n/a,n/a,-99.99,Henriksen +1-Wire,2013-02-04 12:51:00,
2013-02-04 05:01:00,46.4,42.6,30.10,North,7,2.9,4.6,86,0.00,n/a,n/a,-99.99,Henriksen +1-Wire,2013-02-04 13:01:00,
2013-02-04 05:11:00,46.3,42.8,30.10,North,360,2.3,3.7,87,0.00,n/a,n/a,-99.99,Henriksen +1-Wire,2013-02-04 13:11:00,
2013-02-04 05:21:00,46.6,43.2,30.10,North,351,2.4,3.7,87,0.00,n/a,n/a,-99.99,Henriksen +1-Wire,2013-02-04 13:21:00,
2013-02-04 05:31:00,46.6,43.1,30.10,NNW,346,1.8,4.6,87,0.00,n/a,n/a,-99.99,Henriksen +1-Wire,2013-02-04 13:31:00,
2013-02-04 05:41:00,46.5,42.9,30.10,NNE,13,2.8,4.7,87,0.00,n/a,n/a,-99.99,Henriksen +1-Wire,2013-02-04 13:41:00,
2013-02-04 05:51:00,46.5,43.0,30.09,NNE,19,3.7,6.5,87,0.00,n/a,n/a,-99.99,Henriksen +1-Wire,2013-02-04 13:51:00,
2013-02-04 06:01:00,46.6,43.4,30.09,NNE,23,4.9,7.4,88,0.00,n/a,n/a,-99.99,Henriksen +1-Wire,2013-02-04 14:01:00,
2013-02-04 06:10:00,46.8,43.7,30.09,East,80,0.4,1.1,88,0.00,n/a,n/a,-99.99,Henriksen +1-Wire,2013-02-04 14:10:00,
2013-02-04 06:20:00,46.8,43.5,30.09,ENE,66,0.0,0.0,88,0.00,n/a,n/a,-99.99,Henriksen +1-Wire,2013-02-04 14:20:00,
2013-02-04 06:30:00,46.7,43.2,30.10,NE,40,1.5,2.8,87,0.00,n/a,n/a,-99.99,Henriksen +1-Wire,2013-02-04 14:30:00,
2013-02-04 06:40:00,46.5,42.9,30.10,NNE,26,1.4,2.8,87,0.00,n/a,n/a,-99.99,Henriksen +1-Wire,2013-02-04 14:40:00,
2013-02-04 06:50:00,46.4,42.8,30.10,North,6,2.8,3.7,87,0.00,n/a,n/a,-99.99,Henriksen +1-Wire,2013-02-04 14:50:00,
2013-02-04 07:00:00,46.4,42.8,30.10,NNW,329,2.3,4.7,87,0.00,n/a,n/a,-99.99,Henriksen +1-Wire,2013-02-04 15:00:00,
2013-02-04 07:10:00,46.6,43.2,30.11,NNW,348,1.6,3.7,87,0.00,n/a,n/a,-99.99,Henriksen +1-Wire,2013-02-04 15:10:00,
2013-02-04 07:20:00,46.8,43.4,30.11,NNE,19,3.0,4.6,87,0.00,n/a,n/a,-99.99,Henriksen +1-Wire,2013-02-04 15:20:00,
2013-02-04 07:30:00,47.0,43.6,30.11,North,3,1.6,5.5,87,0.00,n/a,n/a,-99.99,Henriksen +1-Wire,2013-02-04 15:30:00,
2013-02-04 07:40:00,47.2,43.9,30.12,NW,307,2.6,5.5,88,0.00,n/a,n/a,-99.99,Henriksen +1-Wire,2013-02-04 15:40:00,
2013-02-04 07:50:00,47.6,44.3,30.12,NW,322,5.2,8.3,88,0.00,n/a,n/a,-99.99,Henriksen +1-Wire,2013-02-04 15:50:00,
2013-02-04 08:00:00,48.3,45.0,30.13,NNW,327,2.4,6.4,88,0.00,n/a,n/a,-99.99,Henriksen +1-Wire,2013-02-04 16:00:00,
2013-02-04 08:10:00,48.9,45.8,30.13,North,351,2.6,5.5,88,0.00,n/a,n/a,-99.99,Henriksen +1-Wire,2013-02-04 16:10:00,
2013-02-04 08:20:00,49.7,46.5,30.13,NW,322,0.4,4.7,88,0.00,n/a,n/a,-99.99,Henriksen +1-Wire,2013-02-04 16:20:00,
2013-02-04 08:30:00,50.4,47.2,30.13,NNW,342,1.2,4.6,88,0.00,n/a,n/a,-99.99,Henriksen +1-Wire,2013-02-04 16:30:00,
2013-02-04 08:40:00,50.9,47.6,30.13,North,358,0.0,3.7,88,0.00,n/a,n/a,-99.99,Henriksen +1-Wire,2013-02-04 16:40:00,
2013-02-04 08:50:00,51.4,48.1,30.13,SSW,210,0.8,2.9,88,0.00,n/a,n/a,-99.99,Henriksen +1-Wire,2013-02-04 16:50:00,
2013-02-04 09:00:00,52.0,48.7,30.13,West,266,0.0,2.8,88,0.00,n/a,n/a,-99.99,Henriksen +1-Wire,2013-02-04 17:00:00,
2013-02-04 09:10:00,52.5,49.2,30.14,NW,316,0.0,0.0,88,0.00,n/a,n/a,-99.99,Henriksen +1-Wire,2013-02-04 17:10:00,
2013-02-04 09:20:00,53.1,49.6,30.14,SSW,199,0.0,0.0,87,0.00,n/a,n/a,-99.99,Henriksen +1-Wire,2013-02-04 17:20:00,
2013-02-04 09:30:00,53.8,50.3,30.14,East,82,2.2,3.7,87,0.00,n/a,n/a,-99.99,Henriksen +1-Wire,2013-02-04 17:30:00,
2013-02-04 09:40:00,54.4,50.9,30.14,SSE,159,1.5,2.8,87,0.00,n/a,n/a,-99.99,Henriksen +1-Wire,2013-02-04 17:40:00,
2013-02-04 09:50:00,55.2,51.7,30.14,South,171,2.0,5.5,87,0.00,n/a,n/a,-99.99,Henriksen +1-Wire,2013-02-04 17:50:00,
2013-02-04 10:00:00,55.8,52.2,30.14,SW,226,3.2,6.5,87,0.00,n/a,n/a,-99.99,Henriksen +1-Wire,2013-02-04 18:00:00,
2013-02-04 10:10:00,55.5,51.5,30.15,West,280,4.6,9.2,86,0.00,n/a,n/a,-99.99,Henriksen +1-Wire,2013-02-04 18:10:00,
2013-02-04 10:20:00,55.3,51.0,30.15,WNW,286,7.9,11.9,85,0.00,n/a,n/a,-99.99,Henriksen +1-Wire,2013-02-04 18:20:00,
2013-02-04 10:30:00,55.1,50.6,30.14,WNW,288,6.6,12.0,84,0.00,n/a,n/a,-99.99,Henriksen +1-Wire,2013-02-04 18:30:00,
2013-02-04 10:40:00,54.8,50.0,30.14,WNW,287,7.5,12.2,83,0.00,n/a,n/a,-99.99,Henriksen +1-Wire,2013-02-04 18:40:00,
2013-02-04 10:50:00,54.8,49.8,30.13,WNW,287,6.0,11.0,83,0.00,n/a,n/a,-99.99,Henriksen +1-Wire,2013-02-04 18:50:00,
2013-02-04 11:00:00,55.1,49.7,30.13,WNW,291,7.3,12.9,81,0.00,n/a,n/a,-99.99,Henriksen +1-Wire,2013-02-04 19:00:00,
2013-02-04 11:10:00,55.2,49.5,30.12,WNW,283,7.7,12.8,80,0.00,n/a,n/a,-99.99,Henriksen +1-Wire,2013-02-04 19:10:00,
2013-02-04 11:20:00,55.4,49.3,30.12,West,281,7.2,12.0,79,0.00,n/a,n/a,-99.99,Henriksen +1-Wire,2013-02-04 19:20:00,
2013-02-04 11:30:00,55.4,49.1,30.11,WNW,287,6.8,13.8,79,0.00,n/a,n/a,-99.99,Henriksen +1-Wire,2013-02-04 19:30:00,
2013-02-04 11:40:00,55.4,48.9,30.11,WNW,283,7.6,13.9,78,0.00,n/a,n/a,-99.99,Henriksen +1-Wire,2013-02-04 19:40:00,
2013-02-04 11:50:00,55.4,48.6,30.11,WNW,289,7.2,14.6,77,0.00,n/a,n/a,-99.99,Henriksen +1-Wire,2013-02-04 19:50:00,
2013-02-04 12:00:00,55.6,48.3,30.11,WNW,287,8.2,14.8,76,0.00,n/a,n/a,-99.99,Henriksen +1-Wire,2013-02-04 20:00:00,
2013-02-04 12:10:00,55.8,48.0,30.10,WNW,282,8.0,14.8,75,0.00,n/a,n/a,-99.99,Henriksen +1-Wire,2013-02-04 20:10:00,
2013-02-04 12:20:00,55.9,48.0,30.09,WNW,284,8.3,13.9,74,0.00,n/a,n/a,-99.99,Henriksen +1-Wire,2013-02-04 20:20:00,
2013-02-04 12:30:00,55.8,47.8,30.09,WNW,285,11.0,16.6,74,0.00,n/a,n/a,-99.99,Henriksen +1-Wire,2013-02-04 20:30:00,
2013-02-04 12:40:00,55.8,48.0,30.09,WNW,284,11.4,15.7,74,0.00,n/a,n/a,-99.99,Henriksen +1-Wire,2013-02-04 20:40:00,
2013-02-04 12:50:00,55.7,47.9,30.09,WNW,287,10.8,17.5,74,0.00,n/a,n/a,-99.99,Henriksen +1-Wire,2013-02-04 20:50:00,
2013-02-04 13:00:00,55.7,47.9,30.09,WNW,291,8.6,17.5,74,0.00,n/a,n/a,-99.99,Henriksen +1-Wire,2013-02-04 21:00:00,
2013-02-04 13:10:00,55.6,47.8,30.09,WNW,292,7.8,16.6,74,0.00,n/a,n/a,-99.99,Henriksen +1-Wire,2013-02-04 21:10:00,
2013-02-04 13:20:00,55.6,47.8,30.08,WNW,287,10.4,16.4,74,0.00,n/a,n/a,-99.99,Henriksen +1-Wire,2013-02-04 21:20:00,
2013-02-04 13:30:00,55.5,47.7,30.08,WNW,286,8.2,18.5,74,0.00,n/a,n/a,-99.99,Henriksen +1-Wire,2013-02-04 21:30:00,
2013-02-04 13:40:00,55.6,47.8,30.08,WNW,285,8.6,16.6,74,0.00,n/a,n/a,-99.99,Henriksen +1-Wire,2013-02-04 21:40:00,
2013-02-04 13:50:00,55.7,47.7,30.07,WNW,283,10.0,17.5,74,0.00,n/a,n/a,-99.99,Henriksen +1-Wire,2013-02-04 21:50:00,
2013-02-04 14:00:00,55.7,47.7,30.07,WNW,289,7.5,16.6,74,0.00,n/a,n/a,-99.99,Henriksen +1-Wire,2013-02-04 22:00:00,
2013-02-04 14:10:00,55.7,47.9,30.06,WNW,290,8.6,14.6,74,0.00,n/a,n/a,-99.99,Henriksen +1-Wire,2013-02-04 22:10:00,
2013-02-04 14:20:00,55.5,47.8,30.06,WNW,286,8.4,19.2,74,0.00,n/a,n/a,-99.99,Henriksen +1-Wire,2013-02-04 22:20:00,
2013-02-04 14:30:00,55.6,47.9,30.05,WNW,292,10.1,19.2,75,0.00,n/a,n/a,-99.99,Henriksen +1-Wire,2013-02-04 22:30:00,
2013-02-04 14:40:00,55.4,47.8,30.05,WNW,287,8.3,16.6,75,0.00,n/a,n/a,-99.99,Henriksen +1-Wire,2013-02-04 22:40:00,
2013-02-04 14:50:00,55.3,47.9,30.05,WNW,291,9.4,15.7,75,0.00,n/a,n/a,-99.99,Henriksen +1-Wire,2013-02-04 22:50:00,
2013-02-04 15:00:00,55.3,47.9,30.05,WNW,288,6.7,14.6,75,0.00,n/a,n/a,-99.99,Henriksen +1-Wire,2013-02-04 23:00:00,
2013-02-04 15:10:00,55.2,47.7,30.05,WNW,290,9.3,15.5,75,0.00,n/a,n/a,-99.99,Henriksen +1-Wire,2013-02-04 23:10:00,
2013-02-04 15:20:00,55.0,47.7,30.05,WNW,288,6.7,14.8,75,0.00,n/a,n/a,-99.99,Henriksen +1-Wire,2013-02-04 23:20:00,
2013-02-04 15:30:00,54.9,47.7,30.05,WNW,289,7.0,14.6,76,0.00,n/a,n/a,-99.99,Henriksen +1-Wire,2013-02-04 23:30:00,
2013-02-04 15:40:00,54.5,47.5,30.06,WNW,285,11.5,15.7,77,0.00,n/a,n/a,-99.99,Henriksen +1-Wire,2013-02-04 23:40:00,
2013-02-04 15:50:00,54.2,47.4,30.05,WNW,286,9.3,16.4,77,0.00,n/a,n/a,-99.99,Henriksen +1-Wire,2013-02-04 23:50:00,
2013-02-04 16:00:00,54.1,47.5,30.05,WNW,285,8.0,14.8,78,0.00,n/a,n/a,-99.99,Henriksen +1-Wire,2013-02-05 00:00:00,
2013-02-04 16:10:00,53.9,47.5,30.05,WNW,285,9.2,15.3,78,0.00,n/a,n/a,-99.99,Henriksen +1-Wire,2013-02-05 00:10:00,
2013-02-04 16:20:00,53.8,47.5,30.04,WNW,285,9.2,14.6,79,0.00,n/a,n/a,-99.99,Henriksen +1-Wire,2013-02-05 00:20:00,
2013-02-04 16:30:00,53.6,47.3,30.05,WNW,286,9.4,13.9,79,0.00,n/a,n/a,-99.99,Henriksen +1-Wire,2013-02-05 00:30:00,
2013-02-04 16:40:00,53.4,47.4,30.04,WNW,287,8.0,15.5,79,0.00,n/a,n/a,-99.99,Henriksen +1-Wire,2013-02-05 00:40:00,
2013-02-04 16:50:00,53.4,47.5,30.04,WNW,286,6.9,11.1,80,0.00,n/a,n/a,-99.99,Henriksen +1-Wire,2013-02-05 00:50:00,
2013-02-04 17:00:00,53.5,47.6,30.04,WNW,295,5.5,9.2,80,0.00,n/a,n/a,-99.99,Henriksen +1-Wire,2013-02-05 01:00:00,
2013-02-04 17:10:00,53.4,47.6,30.04,NW,304,3.8,10.0,80,0.00,n/a,n/a,-99.99,Henriksen +1-Wire,2013-02-05 01:10:00,
2013-02-04 17:20:00,53.3,47.5,30.03,WNW,303,3.7,8.3,80,0.00,n/a,n/a,-99.99,Henriksen +1-Wire,2013-02-05 01:20:00,
2013-02-04 17:30:00,53.1,47.3,30.03,NW,308,4.7,8.3,80,0.00,n/a,n/a,-99.99,Henriksen +1-Wire,2013-02-05 01:30:00,
2013-02-04 17:40:00,52.8,47.2,30.03,NW,309,4.6,7.4,81,0.00,n/a,n/a,-99.99,Henriksen +1-Wire,2013-02-05 01:40:00,
2013-02-04 17:50:00,52.5,47.1,30.03,NW,311,6.0,11.1,81,0.00,n/a,n/a,-99.99,Henriksen +1-Wire,2013-02-05 01:50:00,
2013-02-04 18:00:00,52.1,47.1,30.03,NW,308,4.3,9.0,82,0.00,n/a,n/a,-99.99,Henriksen +1-Wire,2013-02-05 02:00:00,
2013-02-04 18:10:00,52.0,47.0,30.04,NW,307,4.7,7.4,82,0.00,n/a,n/a,-99.99,Henriksen +1-Wire,2013-02-05 02:10:00,
2013-02-04 18:20:00,51.8,46.9,30.04,NW,315,1.9,5.5,83,0.00,n/a,n/a,-99.99,Henriksen +1-Wire,2013-02-05 02:20:00,
2013-02-04 18:30:00,51.8,46.8,30.04,NW,323,0.2,3.7,82,0.00,n/a,n/a,-99.99,Henriksen +1-Wire,2013-02-05 02:30:00,
2013-02-04 18:40:00,51.7,46.5,30.04,NNW,333,0.1,2.1,82,0.00,n/a,n/a,-99.99,Henriksen +1-Wire,2013-02-05 02:40:00,
2013-02-04 18:50:00,51.5,46.2,30.05,North,360,0.0,0.0,81,0.00,n/a,n/a,-99.99,Henriksen +1-Wire,2013-02-05 02:50:00,
2013-02-04 19:00:00,51.2,45.9,30.05,NNE,18,2.3,3.7,81,0.00,n/a,n/a,-99.99,Henriksen +1-Wire,2013-02-05 03:00:00,
2013-02-04 19:10:00,50.9,45.7,30.04,NNE,22,2.2,3.7,82,0.00,n/a,n/a,-99.99,Henriksen +1-Wire,2013-02-05 03:10:00,
2013-02-04 19:20:00,50.6,45.4,30.05,NNE,18,1.8,2.8,82,0.00,n/a,n/a,-99.99,Henriksen +1-Wire,2013-02-05 03:20:00,
2013-02-04 19:30:00,50.4,45.3,30.06,NNE,17,0.0,1.8,82,0.00,n/a,n/a,-99.99,Henriksen +1-Wire,2013-02-05 03:30:00,
2013-02-04 19:41:00,50.1,44.8,30.06,NE,38,0.0,0.0,81,0.00,n/a,n/a,-99.99,Henriksen +1-Wire,2013-02-05 03:41:00,
2013-02-04 19:51:00,49.9,44.6,30.06,North,349,0.0,0.0,81,0.00,n/a,n/a,-99.99,Henriksen +1-Wire,2013-02-05 03:51:00,
2013-02-04 20:00:00,49.7,44.4,30.07,ESE,112,1.3,2.8,81,0.00,n/a,n/a,-99.99,Henriksen +1-Wire,2013-02-05 04:00:00,
2013-02-04 20:11:00,49.7,44.4,30.07,NE,56,2.5,3.7,81,0.00,n/a,n/a,-99.99,Henriksen +1-Wire,2013-02-05 04:11:00,
2013-02-04 20:20:00,49.7,44.5,30.07,NE,46,1.5,3.7,82,0.00,n/a,n/a,-99.99,Henriksen +1-Wire,2013-02-05 04:20:00,
2013-02-04 20:30:00,49.6,44.5,30.07,NNE,13,1.0,3.7,82,0.00,n/a,n/a,-99.99,Henriksen +1-Wire,2013-02-05 04:30:00,
2013-02-04 20:40:00,49.5,44.5,30.07,North,5,1.2,2.8,82,0.00,n/a,n/a,-99.99,Henriksen +1-Wire,2013-02-05 04:40:00,
2013-02-04 20:50:00,49.3,44.2,30.07,NNE,25,1.1,2.8,82,0.00,n/a,n/a,-99.99,Henriksen +1-Wire,2013-02-05 04:50:00,
2013-02-04 21:00:00,49.1,44.0,30.07,NNE,19,1.7,2.8,82,0.00,n/a,n/a,-99.99,Henriksen +1-Wire,2013-02-05 05:00:00,
2013-02-04 21:10:00,48.8,43.7,30.07,NNE,26,1.4,2.8,82,0.00,n/a,n/a,-99.99,Henriksen +1-Wire,2013-02-05 05:10:00,
2013-02-04 21:20:00,48.7,43.6,30.07,NNE,22,1.5,2.8,82,0.00,n/a,n/a,-99.99,Henriksen +1-Wire,2013-02-05 05:20:00,
2013-02-04 21:31:00,48.6,43.6,30.07,NNE,22,1.1,1.9,82,0.00,n/a,n/a,-99.99,Henriksen +1-Wire,2013-02-05 05:31:00,
2013-02-04 21:40:00,48.5,43.5,30.08,North,7,0.7,1.9,82,0.00,n/a,n/a,-99.99,Henriksen +1-Wire,2013-02-05 05:40:00,
2013-02-04 21:50:00,48.3,43.4,30.09,North,350,0.8,2.8,82,0.00,n/a,n/a,-99.99,Henriksen +1-Wire,2013-02-05 05:50:00,
2013-02-04 22:00:00,48.3,43.4,30.09,NW,322,2.2,4.6,83,0.00,n/a,n/a,-99.99,Henriksen +1-Wire,2013-02-05 06:00:00,
2013-02-04 22:10:00,48.8,44.3,30.09,NW,305,2.2,5.5,84,0.00,n/a,n/a,-99.99,Henriksen +1-Wire,2013-02-05 06:10:00,
2013-02-04 22:21:00,49.5,45.3,30.09,WNW,303,2.9,6.5,85,0.00,n/a,n/a,-99.99,Henriksen +1-Wire,2013-02-05 06:21:00,
2013-02-04 22:31:00,49.8,45.7,30.10,NW,306,3.7,6.5,85,0.00,n/a,n/a,-99.99,Henriksen +1-Wire,2013-02-05 06:31:00,
2013-02-04 22:41:00,49.8,45.8,30.09,NW,311,3.0,7.3,85,0.00,n/a,n/a,-99.99,Henriksen +1-Wire,2013-02-05 06:41:00,
2013-02-04 22:51:00,49.8,45.8,30.09,NW,312,3.6,7.4,86,0.00,n/a,n/a,-99.99,Henriksen +1-Wire,2013-02-05 06:51:00,
2013-02-04 23:00:00,50.0,46.1,30.09,NW,315,4.7,8.3,86,0.00,n/a,n/a,-99.99,Henriksen +1-Wire,2013-02-05 07:00:00,
2013-02-04 23:11:00,50.0,46.1,30.09,NNW,328,4.8,8.4,86,0.00,n/a,n/a,-99.99,Henriksen +1-Wire,2013-02-05 07:11:00,
2013-02-04 23:20:00,49.9,46.1,30.09,NNW,332,3.0,7.6,86,0.00,n/a,n/a,-99.99,Henriksen +1-Wire,2013-02-05 07:20:00,
2013-02-04 23:31:00,49.8,46.0,30.09,NNW,338,2.6,6.5,86,0.00,n/a,n/a,-99.99,Henriksen +1-Wire,2013-02-05 07:31:00,
2013-02-04 23:41:00,49.7,45.8,30.09,North,358,2.3,5.5,86,0.00,n/a,n/a,-99.99,Henriksen +1-Wire,2013-02-05 07:41:00,
2013-02-04 23:50:00,49.6,45.8,30.09,North,6,2.5,4.6,86,0.00,n/a,n/a,-99.99,Henriksen +1-Wire,2013-02-05 07:50:00,